Dewpoint
16 12 14 13 12 11 12 10 9 7 7 6 4 4 3 6 22 24 26 27 27 23 23 24 30 32 34 36 37 38 40 41 42 43 43 43 41 40 41 41 42 44 42 43 44 45 46 49 49 49 48 49 52 53 53 54 55 55 54 54 54 55 56 57 56 55 55 57 56 60 60 61 61 62 63 64 65 65 66 66 67 66 67 66 66 66
22 17 17 17 17 16 17 16 13 8 7 7 6 6 10 10 16 22 23 25 25 23 29 31 31 33 34 36 36 38 38 37 39 40 41 41 41 42 42 42 42 45 44 43 42 43 44 42 48 49 49 51 50 52 53 54 54 56 55 55 55 54 55 55 57 55 55 57 56 58 59 60 58 59 60 60 63 65 65 66 66 66 66 66 66 66
22 18 18 19 17 18 20 17 13 10 8 8 6 9 9 15 22 24 24 26 24 25 28 30 30 32 34 35 36 37 37 39 39 40 40 40 39 38 39 41 44 43 43 42 41 41 43 44 45 46 50 50 50 51 52 53 54 55 54 55 56 55 55 54 56 55 55 57 59 59 58 60 60 62 63 63 64 65 66 66 66 66 66 65 65 65
22 17 20 21 19 18 19 17 14 12 11 9 10 11 12 19 13 19 27 26 26 24 27 29 28 32 34 35 36 36 35 37 37 36 37 38 40 38 38 39 40 40 40 42 43 43 43 45 46 46 48 49 50 50 51 52 53 54 54 55 56 55 56 56 56 57 57 57 59 60 60 61 62 61 62 64 65 65 65 65 66 65 66 64 65 65
16 19 22 21 21 17 16 16 13 12 13 12 9 8 13 16 14 12 21 26 25 26 26 25 25 28 31 31 33 36 36 36 37 35 35 36 37 40 41 41 42 41 43 41 41 43 43 44 45 46 47 47 48 50 51 52 52 53 54 54 55 55 56 55 56 57 58 57 57 57 58 57 60 61 60 61 60 62 63 63 64 65 65 65 65 65
20 21 22 20 18 16 17 15 15 13 13 16 21 13 11 15 15 18 24 22 20 25 26 19 15 18 29 29 29 33 34 37 36 37 34 36 37 38 39 40 41 43 42 42 42 41 42 44 45 46 46 46 47 48 50 52 52 53 53 54 55 54 55 55 56 57 57 57 57 57 55 54 53 54 56 55 57 58 60 61 64 65 64 64 64 64
19 21 21 16 15 14 13 14 17 16 15 17 18 19 16 17 18 19 19 16 16 19 25 25 16 21 27 28 31 34 32 34 35 37 34 34 35 35 35 37 39 40 41 43 42 41 42 44 44 45 45 45 46 48 49 50 51 52 53 54 54 54 54 55 56 56 56 56 56 58 58 57 57 55 55 56 59 59 60 61 63 64 65 64 64 65
22 20 19 20 17 15 13 16 17 17 12 16 21 20 20 20 19 19 17 14 25 25 26 26 20 19 25 27 30 34 33 33 34 34 36 35 35 36 36 36 39 37 40 40 42 43 45 45 44 44 44 44 45 48 48 49 50 51 52 53 53 53 53 55 56 56 56 54 54 56 57 57 57 56 57 59 59 60 61 60 62 63 64 65 64 64
26 19 19 18 19 16 16 19 20 19 13 19 22 21 21 20 19 19 16 17 22 21 23 22 28 20 18 26 30 33 32 33 33 34 35 35 33 37 37 35 37 39 38 39 39 43 44 44 45 45 44 44 46 47 49 49 50 50 50 50 51 52 54 54 55 55 55 55 55 54 55 56 56 58 57 56 57 57 58 60 60 62 62 63 65 65
24 28 24 23 18 17 21 22 22 21 16 23 24 23 23 22 21 19 19 22 24 21 20 22 23 17 17 30 30 33 30 29 32 34 33 34 33 33 35 37 39 37 39 36 40 41 44 45 45 46 45 45 46 48 49 49 50 49 48 48 49 50 52 53 54 55 55 55 55 55 55 55 55 57 58 57 56 57 58 58 59 60 61 62 64 65
26 33 32 25 23 22 23 25 24 22 23 25 25 23 23 22 23 24 25 24 25 19 21 23 24 20 21 24 28 31 30 28 29 32 34 34 34 34 37 36 36 35 36 35 39 42 43 45 46 45 45 45 47 48 48 49 49 49 48 48 48 50 52 53 53 54 55 56 56 55 56 56 56 57 59 58 58 55 56 57 58 58 59 62 63 64
24 25 27 27 30 23 24 24 26 25 24 23 21 22 22 25 25 26 26 26 23 19 22 22 22 23 20 20 23 29 30 29 29 30 33 34 32 34 38 33 33 34 35 36 37 40 44 45 45 45 44 45 46 47 48 48 48 48 47 48 49 50 52 53 53 54 54 55 57 57 57 57 57 57 56 57 58 56 56 55 55 57 59 62 63 64
21 22 26 27 32 29 22 21 24 25 25 22 22 21 22 25 22 21 24 21 19 16 28 25 23 22 21 23 21 27 28 30 30 29 33 34 32 34 33 33 33 35 36 37 39 42 44 44 45 45 45 45 46 46 47 47 48 47 48 48 48 49 52 52 53 54 54 56 57 57 58 59 58 59 58 58 57 58 57 56 56 57 58 59 61 63
22 23 23 25 26 29 25 19 20 21 21 22 22 23 21 20 21 19 19 21 21 23 23 22 26 21 19 23 25 25 30 29 32 33 35 35 35 34 33 34 35 39 40 40 43 43 45 44 42 45 45 44 45 46 46 47 47 47 48 48 47 48 52 52 52 53 53 55 56 57 58 58 59 60 60 61 59 58 57 57 58 58 58 59 61 62
18 21 22 23 25 27 25 22 20 21 20 20 22 20 23 22 20 18 14 15 17 20 27 28 22 20 19 30 29 31 30 31 31 31 34 36 35 36 32 33 36 40 42 44 42 40 42 44 45 46 46 45 45 46 46 47 46 47 47 47 47 48 51 52 52 53 53 53 55 57 57 57 58 59 59 59 61 62 61 58 60 61 60 61 62 62
20 24 28 28 29 27 25 25 23 18 17 19 21 20 21 29 23 18 25 20 22 20 23 26 22 25 24 33 31 32 29 30 32 34 37 36 33 35 36 37 38 40 41 41 40 40 43 44 45 45 45 45 45 46 47 47 47 47 47 47 47 47 50 51 52 53 53 53 54 56 56 57 58 58 59 59 60 61 62 63 61 62 63 64 64 65
23 23 27 28 29 27 27 27 24 24 19 20 17 19 22 23 20 23 28 34 31 20 15 23 26 24 26 29 29 30 29 30 32 32 32 32 32 36 37 38 38 39 39 41 41 41 44 43 45 44 45 44 45 45 46 47 48 48 48 47 47 47 49 50 51 53 52 52 53 54 55 56 57 58 59 59 60 61 62 63 63 62 63 64 64 64
26 25 27 25 26 27 28 27 26 25 24 21 18 19 24 24 28 26 18 23 20 15 19 24 18 16 20 19 30 30 30 30 31 31 31 32 33 34 36 38 37 39 40 41 41 43 43 43 44 44 44 43 45 46 46 46 47 47 47 47 48 47 48 49 49 52 53 52 52 53 54 56 57 57 57 58 59 60 61 61 62 62 62 62 63 63
29 24 26 25 27 27 28 27 25 25 25 22 26 23 20 22 22 24 21 17 16 13 13 14 19 16 13 23 28 29 29 31 32 31 31 30 33 34 35 37 38 39 40 40 40 41 43 43 44 45 45 42 43 45 44 44 44 46 47 47 47 47 48 48 48 50 52 52 53 53 55 56 56 57 57 57 59 60 60 59 60 60 61 62 62 62
31 25 25 27 26 29 26 25 24 25 24 25 24 22 24 23 24 23 25 20 21 12 14 10 18 15 18 22 25 26 29 31 31 32 31 30 33 33 32 34 35 38 41 40 40 40 42 43 44 44 45 42 42 42 43 44 43 44 44 44 45 47 48 48 48 50 51 52 52 53 54 55 54 56 57 58 59 59 58 58 58 58 60 61 61 62
26 31 18 27 27 26 24 26 25 26 26 24 22 22 25 27 30 23 27 20 18 15 13 14 13 13 24 21 21 23 28 31 32 32 33 33 34 33 33 36 37 38 41 40 40 40 40 43 44 43 44 39 42 40 41 41 43 41 41 42 42 46 47 47 48 48 49 51 51 53 54 54 55 56 56 58 59 59 59 59 59 59 60 59 61 61
23 24 21 21 25 26 24 30 30 31 33 30 25 26 25 24 23 20 19 25 21 19 18 15 14 18 26 22 27 27 30 31 31 33 34 34 33 34 36 38 39 40 41 41 40 39 41 43 44 42 39 39 38 38 41 40 42 41 41 38 40 42 43 45 45 47 47 49 51 52 53 53 54 54 55 58 58 58 58 58 59 60 60 61 60 61
36 29 24 19 20 26 31 30 31 31 35 35 29 28 30 25 26 22 17 18 23 22 23 21 19 20 30 27 32 33 34 31 33 32 34 34 34 34 36 38 40 42 41 41 41 40 41 43 43 38 40 40 39 41 42 42 41 40 41 41 40 40 44 44 44 46 48 49 50 51 52 53 53 53 55 56 57 57 57 58 59 58 59 59 60 60
38 29 25 21 19 24 27 30 33 34 40 32 28 31 30 26 27 25 23 26 20 22 21 19 19 18 30 33 33 37 38 39 38 36 34 34 33 34 36 38 39 42 43 44 42 41 42 43 44 40 40 38 36 41 42 42 40 40 40 41 40 42 44 45 46 46 47 49 49 50 51 52 53 53 54 54 54 55 56 57 58 58 58 58 58 57
28 33 25 18 18 20 26 29 30 35 34 31 27 31 31 32 31 32 32 29 22 22 22 19 15 13 32 32 30 30 30 32 33 35 37 35 37 37 34 35 37 41 42 42 41 41 43 42 40 38 37 36 37 38 42 41 40 39 40 42 42 43 44 45 45 46 46 48 49 50 50 51 51 52 53 54 54 55 55 56 57 57 56 56 58 58
28 29 25 16 15 14 14 17 20 25 27 28 31 34 33 30 32 31 23 24 21 25 27 22 18 21 29 30 29 29 28 29 31 34 37 35 36 35 34 35 38 41 42 42 41 43 43 40 37 40 42 38 39 37 38 39 37 37 39 42 44 42 44 45 45 44 46 47 48 48 50 51 52 52 53 53 54 54 54 54 55 55 56 56 56 58
30 34 28 24 20 18 25 30 35 34 29 26 30 32 31 32 31 33 30 25 19 22 25 27 26 25 25 25 29 29 31 30 30 33 33 33 35 36 36 36 38 39 39 40 41 42 43 42 44 44 44 42 42 41 39 37 35 35 40 41 41 42 44 45 46 46 43 46 48 48 49 50 51 51 52 53 53 53 53 53 54 53 54 55 56 56
32 25 30 32 30 26 28 33 33 33 32 32 31 31 29 32 34 34 28 24 27 26 21 26 28 29 28 26 28 31 32 32 32 32 31 31 32 33 35 38 41 37 38 39 41 41 41 43 45 45 45 45 41 40 39 37 36 37 39 39 39 40 43 46 45 44 45 45 47 48 48 49 50 50 51 51 51 51 52 52 52 52 53 54 55 56
31 25 35 32 29 29 31 30 32 33 32 31 32 31 31 31 32 33 33 32 33 26 23 28 33 33 30 29 30 30 33 35 34 34 34 33 32 32 34 35 36 35 37 37 39 40 42 42 43 45 45 44 44 42 40 38 35 39 40 40 39 41 41 43 44 43 44 45 46 47 48 49 49 49 49 49 50 50 51 50 51 51 51 53 54 55
33 26 33 33 31 31 30 28 28 30 30 30 30 28 28 29 30 31 31 31 31 31 30 32 32 32 32 31 30 32 34 36 35 35 35 32 32 32 33 33 31 32 35 36 37 39 41 41 43 44 45 45 43 41 37 37 36 37 40 40 40 41 43 42 42 42 43 44 44 46 46 47 48 48 49 49 49 49 49 49 50 50 50 51 51 52
33 27 35 35 30 30 31 29 29 30 31 30 29 28 27 27 27 28 31 33 32 33 33 33 32 30 31 33 33 34 38 38 37 36 35 35 32 33 32 32 32 32 31 35 37 39 40 41 41 42 42 43 43 43 40 41 40 41 42 40 39 41 41 39 41 42 43 43 44 44 45 46 47 47 47 48 49 49 48 47 48 48 48 50 50 50
36 30 34 32 25 25 28 27 28 30 29 28 28 29 28 28 29 30 29 32 32 30 32 32 30 28 29 31 33 36 38 36 35 35 34 33 33 33 33 32 32 34 34 35 37 39 39 39 41 41 42 43 43 42 40 39 39 40 40 40 41 42 42 42 42 42 42 43 44 44 43 44 45 46 47 47 46 47 47 47 47 47 48 49 50 50
33 29 27 23 21 22 30 29 28 28 26 23 24 27 29 28 27 28 28 31 34 34 31 27 26 29 29 35 33 34 35 34 33 33 34 35 35 33 33 32 31 33 34 35 36 38 38 38 40 42 43 42 41 38 41 40 39 40 40 41 43 42 42 41 42 42 43 43 43 43 45 43 43 44 45 46 46 47 47 46 47 47 47 48 49 49
33 31 27 28 23 22 26 29 30 24 18 16 30 29 29 29 31 30 29 31 34 35 30 30 29 31 33 34 33 33 35 34 35 36 35 36 36 36 33 33 32 33 35 36 36 37 39 39 40 42 43 43 43 41 41 41 41 41 42 41 41 42 41 40 41 42 42 43 43 43 44 43 43 44 44 44 44 45 45 46 46 48 48 47 48 48
32 31 26 28 25 22 23 26 22 19 18 31 31 32 33 33 29 30 31 31 33 33 34 32 31 31 31 32 33 35 36 36 37 37 36 36 37 36 35 33 35 35 37 38 38 38 40 41 42 44 44 42 42 44 41 39 40 40 40 41 42 40 40 41 40 42 42 43 43 44 44 43 43 44 44 44 44 45 45 46 47 46 46 47 47 47
29 28 28 26 24 23 22 21 19 14 29 30 36 39 38 33 33 36 34 32 31 31 33 34 32 31 32 33 34 35 36 38 38 38 39 39 38 36 35 35 37 38 38 38 40 41 42 42 43 44 44 43 41 40 35 38 37 38 40 40 40 40 39 40 39 40 42 41 42 42 43 43 44 44 43 44 44 44 45 45 46 46 46 47 46 46
33 29 27 23 26 20 21 19 20 27 27 28 35 37 35 34 36 34 26 27 32 32 33 32 31 31 31 31 34 37 38 36 34 33 37 39 39 37 37 37 39 39 40 40 41 42 43 43 43 44 44 43 41 37 39 37 36 39 39 38 38 38 39 39 39 38 40 40 41 42 43 43 43 44 44 44 44 44 44 45 45 45 45 45 45 45
33 28 27 25 25 24 20 20 21 21 21 22 33 36 38 39 40 39 34 29 32 31 31 31 31 32 32 34 37 39 39 34 31 30 36 38 40 40 36 38 39 39 39 40 40 42 43 43 43 44 43 43 41 39 39 38 39 39 39 39 38 37 38 37 37 37 39 40 40 41 42 42 42 43 43 43 43 44 45 44 44 44 45 44 43 43
35 33 30 26 24 24 23 22 21 20 22 29 33 37 39 40 40 39 35 27 28 31 32 32 32 32 33 34 40 38 34 27 25 28 38 40 39 39 38 40 38 37 39 41 42 42 41 43 43 42 42 42 40 39 40 38 39 38 38 40 39 39 38 38 37 37 38 39 40 41 42 43 43 43 43 42 44 45 44 43 43 44 44 43 42 43
34 32 31 26 26 23 22 21 21 24 22 32 34 33 34 38 40 34 23 22 31 32 32 34 33 33 35 38 39 36 30 27 28 35 39 40 38 40 39 39 39 39 40 39 40 42 42 42 41 40 40 40 40 40 39 38 39 39 38 38 40 39 39 39 39 36 37 39 41 42 42 43 44 44 43 42 43 44 43 43 43 44 44 43 41 41
31 29 29 26 25 24 25 23 23 24 29 32 34 35 35 40 33 23 19 21 32 33 34 35 34 35 37 40 37 30 32 32 38 38 41 40 39 40 39 40 40 40 39 39 40 41 40 40 39 37 38 37 39 38 37 36 40 39 39 41 40 41 40 40 39 38 38 40 40 40 41 42 43 44 44 43 43 43 43 43 43 44 43 42 43 42
30 29 28 28 26 24 24 23 23 24 28 31 32 35 37 32 23 21 28 36 34 35 36 36 36 37 39 38 35 31 33 41 41 41 40 40 41 41 41 40 40 38 40 40 43 41 40 36 40 40 38 37 37 36 37 37 39 38 38 40 42 41 40 39 38 39 38 39 38 40 41 42 43 45 44 43 43 43 42 43 42 42 42 41 42 43
27 27 25 26 27 27 27 24 23 22 30 36 38 34 35 26 24 31 34 35 36 36 36 36 36 38 39 36 37 37 37 40 39 38 38 38 39 40 41 41 41 40 41 43 43 39 39 37 38 37 39 37 37 36 36 38 39 37 39 41 42 40 40 39 40 37 37 38 39 40 41 42 43 43 43 44 43 42 42 42 42 42 42 42 42 42
32 27 25 25 28 24 24 24 24 26 34 41 34 28 35 32 36 36 34 32 37 36 35 34 35 37 40 39 36 36 39 40 39 39 38 38 39 41 41 42 42 42 43 42 41 41 41 39 38 38 39 37 38 38 38 39 38 37 38 41 41 41 41 40 39 37 38 39 39 40 39 40 41 41 42 42 42 41 41 41 41 40 40 40 39 37
32 31 30 26 30 28 25 25 30 32 36 39 37 36 37 37 38 42 41 38 37 33 38 36 36 38 42 40 40 40 39 41 40 39 39 40 41 41 41 41 41 41 42 42 41 43 41 39 40 39 39 37 39 39 38 38 38 38 39 42 41 39 40 40 39 39 39 39 39 40 39 39 39 40 40 41 40 40 38 40 40 37 38 39 38 37
36 35 40 35 30 33 33 33 36 35 35 35 37 38 39 41 39 41 40 36 36 37 37 36 37 37 39 43 39 39 40 41 41 40 40 40 41 43 42 42 41 42 42 42 42 44 41 40 41 40 39 39 40 39 39 39 37 38 39 40 40 39 39 39 39 39 38 38 39 39 37 38 38 37 39 40 38 38 37 38 37 36 35 34 34 35
33 35 35 32 34 33 30 34 33 33 34 34 33 36 40 41 38 39 39 39 38 37 37 40 40 40 40 41 42 40 40 41 41 42 41 40 40 43 43 41 42 42 42 41 43 44 41 41 40 40 39 38 39 39 39 40 37 37 38 38 38 39 39 38 40 39 39 38 38 39 38 38 35 35 37 38 36 36 36 35 36 37 34 32 33 34
32 36 34 34 34 33 32 34 35 36 36 37 35 35 36 37 37 39 39 39 38 40 40 41 43 43 43 42 42 41 40 41 41 41 40 40 41 42 42 42 42 42 42 42 44 44 41 40 40 40 38 36 38 37 38 38 36 35 37 36 37 38 39 40 40 39 38 39 38 36 36 34 32 35 33 34 34 32 33 35 36 36 34 35 33 32
42 37 32 34 33 33 35 35 34 36 36 36 36 37 37 36 36 37 38 39 40 39 40 40 43 41 41 42 43 42 41 41 42 42 41 40 41 42 41 41 42 43 43 42 44 44 40 41 39 40 39 36 36 37 37 38 37 37 38 36 36 38 39 40 40 40 39 37 36 35 35 36 35 33 32 33 35 33 32 33 35 36 38 37 32 32
34 33 34 35 33 32 31 33 36 34 34 34 36 37 38 38 38 39 39 38 39 39 39 38 39 43 42 42 42 42 42 41 42 43 42 41 42 42 42 42 42 42 42 43 44 44 42 42 41 41 39 36 36 36 35 38 37 37 35 33 34 37 39 40 40 39 39 36 36 37 35 36 34 33 33 31 31 35 36 33 35 34 34 35 34 34
34 35 34 31 32 31 34 34 37 38 37 37 38 38 39 39 38 39 38 38 38 38 38 39 40 40 41 42 42 41 42 42 42 43 43 42 42 43 43 43 42 41 41 43 44 44 42 42 42 41 39 37 36 36 35 36 36 37 36 34 35 35 36 38 38 37 36 36 35 34 36 35 35 35 33 33 32 32 32 36 32 34 34 35 35 34